Location: Cottenham
(52.2833°N, 0.1333°E)
Time: 12:22:56
(UTC+00:00)

Daily predictions for brighter satellites

Satellite Brightness Start Highest point End
(mag) Time Altitude Azimuth Time Altitude Azimuth Time Altitude Azimuth
Cosmos 1125 Rocket 4.1 18:44:28 10° NNW 18:49:22 39° NE 18:54:14 10° SE
ATLAS 2AS CENTAUR R/B 3.8 18:42:57 10° W 18:49:52 46° NNW 18:56:32 10° NE
Meteor PRIRODA 3.4 18:47:16 10° SSE 18:50:30 56° ENE 18:53:44 10° N
Cosmos 1842 3.5 18:47:33 10° N 18:51:00 41° ENE 18:54:26 10° SE
USA 59 Rocket 0.3 18:48:54 10° NW 18:52:32 69° SW 18:57:31 10° SE
Cosmos 1707 3.1 18:51:28 10° N 18:54:49 37° ENE 18:58:08 10° SE
Cosmos 1515 Rocket 4.3 18:51:00 10° N 18:54:58 34° ENE 18:58:57 10° SE
Cosmos 1536 4.0 18:52:10 10° SE 18:55:05 21° E 18:58:03 10° NE
Cosmos 2061 Rocket 4.1 18:49:52 10° S 18:56:19 88° E 19:02:48 10° N
COSMOS 2428 2.9 18:50:51 10° S 18:56:21 51° ESE 19:01:54 10° NE
Cosmos 1818 3.6 18:55:49 10° SW 19:01:16 80° SE 19:06:47 10° NE
Okean O Rocket 2.7 18:58:29 10° ESE 19:02:16 28° ENE 19:06:03 10° N
Cosmos 2278 Rocket 2.2 18:59:43 10° NNW 19:05:26 78° ENE 19:11:06 10° SE
DMSP B5D1-3 4.5 19:02:03 10° NNE 19:07:09 76° ESE 19:12:14 10° S
USA 306 2.5 19:04:40 10° SW 19:07:41 50° SSE 19:11:12 10° ENE
CZ-4B DEB 4.2 19:04:35 10° SSE 19:10:06 86° ENE 19:15:38 10° NNW
CZ-4 R/B 1.2 19:07:13 10° SSE 19:11:02 73° ENE 19:14:58 10° N
NOSS 2-1 (C) 4.3 19:09:19 10° NW 19:12:53 47° SW 19:17:38 10° SSE
CZ-4B R/B 3.3 19:09:17 10° SE 19:14:36 59° ENE 19:19:53 10° N
Meteor 2-17 Rocket 4.4 19:08:50 10° N 19:14:55 70° ENE 19:20:57 10° SSE
Cosmos 1766 Rocket 3.5 19:10:44 10° S 19:15:03 69° E 19:19:27 10° NNE
Helios 1A 2.9 19:11:51 10° NNE 19:15:53 58° ESE 19:19:52 10° S
USA 290 2.4 19:12:41 10° NNW 19:15:58 75° WSW 19:19:15 10° SSE
Resurs 01 Rocket 1.7 19:12:16 10° SSE 19:16:37 60° ENE 19:21:00 10° N
YAOGAN 1 4.5 19:15:17 10° SSW 19:19:10 33° W 19:23:04 10° NNW
ADEOS 4.0 19:14:07 10° S 19:19:18 68° WSW 19:24:32 10° NNW
GEOS 3 Rocket 3.8 19:14:38 10° SE 19:19:50 72° SW 19:25:02 10° NW
USA 186 1.7 19:18:40 10° SSE 19:21:51 65° ENE 19:25:05 10° N
KORONAS-FOTON 3.7 19:18:13 10° NNW 19:21:56 84° WSW 19:25:37 10° S
CZ-4B R/B 3.9 19:17:26 10° S 19:22:07 62° WSW 19:26:57 10° NNW
Cosmos 1814 Rocket 4.0 19:17:26 10° SSW 19:22:42 72° ESE 19:27:56 10° NNE
Cosmos 2360 Rocket 3.8 19:17:32 10° WSW 19:22:45 38° NW 19:28:00 10° NNE
PAYLOAD B 4.3 19:17:37 10° SSE 19:23:14 86° ENE 19:28:53 10° NNW
Cosmos 1743 3.6 19:20:08 10° SSW 19:23:35 49° WNW 19:27:05 10° N
MOS 1-B 4.5 19:18:52 10° SE 19:24:31 58° ENE 19:30:12 10° N
SPOT 5 3.8 19:22:14 14° ESE 19:25:17 27° ENE 19:29:01 10° N
Okean-O 3.6 19:23:05 14° ESE 19:26:03 29° ENE 19:29:50 10° N
SKYMED 3 4.4 19:22:38 10° NNE 19:26:48 87° ESE 19:30:55 10° SSW
USA 267 3.7 19:21:43 10° ENE 19:28:07 60° N 19:34:32 10° WNW
Cosmos 1408 Rocket 4.2 19:25:19 10° SSE 19:29:15 33° E 19:33:12 10° NNE
ISS -2.5 19:26:47 10° SSW 19:29:32 24° SSE 19:30:43 19° ESE
SPOT 1/Viking Rocket 4.2 19:25:23 10° S 19:30:29 59° W 19:35:36 10° NNW
CZ-4B R/B 3.1 19:27:15 10° S 19:31:08 73° WSW 19:35:14 10° NNW
Kosmos-1783 1.8 19:30:16 10° SW 19:32:21 75° NW 19:33:12 23° NE
SL-08 R/B 3.5 19:27:30 10° NNE 19:32:28 81° WNW 19:37:23 10° SSW
Cosmos 2237 Rocket 2.5 19:30:08 10° S 19:35:24 44° ESE 19:40:43 10° NE
Cosmos 2322 Rocket 4.3 19:30:30 10° W 19:35:25 29° NW 19:40:22 10° NNE
Aureole 3 Rocket 4.3 19:32:26 10° SSE 19:38:16 35° E 19:42:39 10° NNE
CSL-04 Rocket 3.6 19:33:02 10° SSE 19:38:23 79° ENE 19:43:42 10° NNW
Cosmos 1674 4.2 19:36:37 10° NNW 19:39:38 32° W 19:42:37 10° SSW
Cosmos 2219 Rocket 3.4 19:34:35 10° WSW 19:40:03 47° NW 19:45:33 10° NNE
Cosmos 1356 Rocket 3.7 19:37:44 10° NNW 19:41:55 69° W 19:46:03 10° S
Lacrosse 4 Rocket 4.2 19:40:48 10° WNW 19:43:33 17° WSW 19:46:16 10° SSW
Meteor 1-14 Rocket 4.2 19:38:43 10° SSW 19:44:15 89° WNW 19:49:51 10° NNE
Meteor 1-4 Rocket 3.9 19:42:35 10° NW 19:44:57 28° W 19:47:17 10° SSW
SJ-6B 4.4 19:43:37 10° SSW 19:46:53 32° W 19:50:09 10° NNW
Meteor 1-11 Rocket 3.8 19:41:50 10° S 19:47:17 55° E 19:52:42 10° NNE
MOS 1 Rocket 4.2 19:45:39 20° ESE 19:48:35 37° ENE 19:53:26 10° N
SeaSat 1 4.3 19:46:40 10° NNE 19:51:04 33° NW 19:55:26 10° WSW
CARTOSAT-1 3.9 19:47:25 10° S 19:51:39 66° WSW 19:55:55 10° NNW
NOSS 3-4 (A) 4.1 19:45:45 10° NW 19:52:05 54° NNE 19:57:11 20° ESE
ATLAS CENTAUR R/B 1.6 19:48:54 10° S 19:52:10 34° ESE 19:54:53 14° ENE
NOSS 3-4 (C) 4.1 19:45:51 10° NW 19:52:11 53° NNE 19:57:18 20° ESE
Cosmos 158 Rocket 4.0 19:47:45 10° S 19:52:22 45° ESE 19:57:01 10° NE
Cosmos 1805 Rocket 4.0 19:52:47 20° SSE 19:55:19 38° E 19:59:22 10° NNE
Cosmos 1428 Rocket 4.4 19:50:55 10° N 19:57:01 68° ENE 20:02:19 14° SSE
Cosmos 2333 Rocket 4.4 19:53:50 10° W 19:58:44 27° NW 20:03:38 10° NNE
Cosmos 1733 2.8 19:56:07 10° S 19:59:33 88° E 20:03:00 10° NNE
In-Cosmos 22 4.3 19:54:01 10° NNW 19:59:45 79° W 20:05:20 10° S
USA 276 3.7 19:58:01 10° WSW 20:00:06 19° SSW 20:00:38 18° SSW
Cosmos 2369 Rocket 3.0 19:57:01 10° NNW 20:02:22 38° NE 20:05:12 24° E
Cosmos 1980 3.6 19:59:13 10° SSW 20:04:52 73° ESE 20:10:33 10° NNE
SWARM A 4.3 20:03:48 12° S 20:07:02 84° W 20:10:34 10° N
Meteor 1-21 4.5 20:01:37 10° N 20:07:16 54° ENE 20:10:23 26° SE
Cosmos 1943 Rocket 2.7 20:04:05 10° NW 20:09:28 56° WSW 20:14:05 14° S
Cosmos 1707 Rocket 4.3 20:06:09 10° N 20:10:13 33° ENE 20:11:05 31° E
Sich 1 3.0 20:07:33 19° S 20:10:26 57° E 20:14:43 10° NNE
DELTA 2 DEB (DPAF) 4.4 20:07:24 10° NNE 20:11:18 37° E 20:11:47 36° ESE
Cosmos 2298 Rocket 4.0 20:08:02 10° NNW 20:13:23 87° ENE 20:16:27 26° SSE
NOSS 0 Rocket 4.0 20:07:09 10° SW 20:13:25 83° WNW 20:19:43 10° NNE
Nadezhda 4 Rocket 4.2 20:08:08 10° NNW 20:14:22 72° W 20:20:38 10° S
Cosmos 2195 Rocket 4.4 20:08:24 10° N 20:14:33 80° E 20:19:12 18° SSE
Cosmos 2150 Rocket 3.9 20:09:53 10° NNW 20:15:05 89° NE 20:17:56 27° SSE
Terra 2.4 20:13:52 32° ESE 20:15:15 40° ENE 20:19:39 10° N
USA 32 3.9 20:10:32 10° N 20:15:49 79° E 20:19:24 21° SSE
ACS3 Solar Sail 2.0 20:09:36 10° SSE 20:15:58 83° WSW 20:22:25 10° NNW
ERS-1 Rocket 3.3 20:14:04 32° ESE 20:16:01 48° ENE 20:20:51 10° N
Cosmos 1570 Rocket 3.9 20:12:18 10° SSW 20:17:35 81° ESE 20:22:52 10° NNE
Cosmos 1975 3.2 20:18:58 39° E 20:18:58 39° E 20:22:24 10° NNE
OPS 6432 4.1 20:17:42 10° NW 20:20:55 75° SW 20:21:15 65° S
Cosmos 2026 Rocket 3.9 20:15:37 10° N 20:21:54 77° ENE 20:25:51 24° SSE
Cosmos 1315 Rocket 3.3 20:18:02 10° NNW 20:21:57 57° W 20:24:27 21° S
Cosmos 1092 Rocket 4.0 20:16:01 10° N 20:22:23 76° E 20:26:28 24° SSE
Cosmos 1805 2.9 20:21:37 42° S 20:22:42 72° E 20:26:22 10° NNE
Ariane Rocket 3.7 20:24:21 32° E 20:25:36 38° ENE 20:30:16 10° N
Meteor 2-12 Rocket 4.4 20:19:30 10° N 20:25:41 69° ENE 20:28:56 29° SSE
Cosmos 836 Rocket 4.4 20:22:53 10° SSW 20:28:07 68° ESE 20:33:24 10° NNE
IRS-1A Rocket 4.3 20:26:28 31° SE 20:29:16 70° ENE 20:34:55 10° NNW
Cosmos 1536 4.2 20:27:10 10° SW 20:30:45 38° WNW 20:34:23 10° N
Okean 3 3.9 20:28:42 10° N 20:32:41 42° ENE 20:32:44 42° ENE
SL-16 R/B 2.5 20:35:16 40° SE 20:35:50 41° ESE 20:41:07 10° NE
Okean O Rocket 2.7 20:35:02 15° SSW 20:38:23 42° W 20:42:36 10° NNW
Cosmos 1656 Rocket 3.6 20:33:43 10° NNW 20:39:25 78° ENE 20:41:19 43° SE
SL-14 R/B 3.5 20:35:50 10° NNW 20:39:36 64° W 20:40:36 44° SSW
Cosmos 1634 Rocket 4.0 20:36:32 26° SSE 20:40:09 64° E 20:46:25 10° NNE
USA 306 2.6 20:36:51 10° W 20:40:15 70° N 20:40:35 64° NNE
COSMOS 2428 4.2 20:35:29 10° WSW 20:40:48 39° NW 20:46:11 10° NNE
USA 59 Rocket 2.9 20:40:07 10° W 20:41:47 12° WSW 20:43:36 10° SW
ATLAS 2AS CENTAUR R/B 4.2 20:36:06 10° WNW 20:42:22 32° N 20:48:25 10° ENE
Okean 2 4.2 20:41:39 10° N 20:44:49 36° NE 20:44:49 36° NE
CZ-4 R/B 4.2 20:44:14 10° WSW 20:46:04 13° W 20:47:55 10° WNW
IRS-1C Rocket 4.0 20:45:02 43° SSE 20:46:50 84° ENE 20:52:09 10° NNW
Cosmos 773 Rocket 3.9 20:45:39 31° S 20:48:09 65° ESE 20:53:25 10° NNE
Cosmos 2278 Rocket 4.3 20:44:40 10° NW 20:48:54 22° WSW 20:53:07 10° SSW
Okean 1-7 3.8 20:45:05 10° N 20:48:39 36° NE 20:48:39 36° NE
Cosmos 839 Rocket 4.4 20:41:27 10° SW 20:49:51 86° NW 20:56:35 10° NE
Cosmos 2263 4.4 20:44:52 10° NNW 20:50:33 57° NE 20:51:55 45° E
Cosmos 1500 Rocket 4.2 20:47:41 11° SSW 20:51:49 54° WNW 20:56:06 10° N
Resurs 01 Rocket 4.1 20:50:12 10° SW 20:53:25 20° W 20:56:39 10° NW
Cosmos 2228 Rocket 3.0 20:50:06 10° N 20:54:42 88° E 20:55:20 66° SSE
Cosmos 2034 Rocket 4.5 20:51:46 10° SSW 20:57:53 59° WNW 21:04:00 10° N
Cosmos 1743 Rocket 3.9 20:56:20 27° SSW 20:58:31 61° WNW 21:02:51 10° N
SPOT 3 Rocket 3.5 21:00:55 60° ESE 21:01:36 67° ENE 21:06:43 10° N
Okean-O 3.7 21:00:31 28° SSW 21:02:16 41° W 21:06:28 10° NNW
SPOT 5 3.6 21:01:23 30° SSW 21:03:09 45° W 21:07:26 10° NNW
ISS -1.5 21:02:38 10° WSW 21:03:42 19° WSW 21:03:42 19° WSW
NOSS 3-3 (C) 3.7 21:00:54 10° SW 21:06:26 85° SE 21:13:04 10° NE
USA 267 3.3 21:08:22 41° E 21:10:52 77° NNE 21:17:25 10° WNW
Cosmos 2344 4.5 21:04:07 10° NW 21:11:22 46° NNE 21:17:16 21° E
Cosmos 724 4.2 21:15:31 60° E 21:15:31 60° E 21:20:44 10° NE
Cosmos 2237 Rocket 3.3 21:14:10 10° WSW 21:19:31 43° NW 21:24:53 10° NNE
NOSS 3-3 (A) 3.9 21:15:05 10° SW 21:20:39 79° NW 21:27:20 10° NE
Cosmos 2279 Rocket 3.8 21:19:59 52° S 21:21:40 84° E 21:27:56 10° NNE
Cosmos 1607 3.8 21:18:25 10° SSW 21:24:53 78° SE 21:31:20 10° NE
Cosmos 2297 4.0 21:22:38 10° NW 21:28:09 57° WSW 21:28:58 52° SSW
ATLAS CENTAUR R/B 2.5 21:26:07 10° WSW 21:29:32 37° NW 21:29:51 36° NNW
Spot 2 Rocket 3.7 21:31:06 57° SW 21:31:36 60° W 21:36:36 10° NNW
Cosmos 1633 Rocket 3.8 21:43:08 51° NNW 21:43:08 51° NNW 21:46:38 10° N
NOSS 3-4 (A) 4.1 21:36:35 10° NW 21:43:12 58° SW 21:44:37 51° SSW
NOSS 3-4 (C) 4.0 21:36:42 10° NW 21:43:19 59° SW 21:44:43 51° SSW
Aureole 3 4.4 21:40:02 10° NNW 21:42:47 46° NNW 21:42:47 46° NNW
Cosmos 2369 Rocket 2.6 21:41:03 10° NW 21:46:36 52° WSW 21:46:58 51° SW
Terra 3.1 21:52:34 32° WSW 21:52:55 32° W 21:57:09 10° NNW
ERS-1 Rocket 4.4 21:53:58 27° WSW 21:54:58 29° W 21:59:21 10° NNW
ACS3 Solar Sail 4.1 21:56:43 10° SW 22:00:59 18° W 22:05:15 10° NW
Ariane Rocket 4.0 22:04:29 38° W 22:04:32 38° W 22:09:17 10° NNW
Cosmos 1980 Rocket 4.5 22:04:21 10° NNW 22:07:47 16° NNE 22:10:31 12° ENE
Cosmos 2266 Rocket 4.1 22:03:01 10° NNW 22:09:12 64° W 22:09:40 62° WSW
Cosmos 2056 Rocket 4.3 22:09:40 10° NNW 22:13:50 46° NNE 22:13:50 46° NNE
SL-16 R/B 3.1 22:17:00 25° WSW 22:19:55 46° NW 22:25:23 10° NNE
ATLAS 2AS CENTAUR R/B 3.5 22:28:13 10° NW 22:34:52 45° NNE 22:36:31 39° ENE
Cosmos 1943 4.0 22:41:44 47° NNE 22:41:44 47° NNE 22:45:44 10° NNE
Cosmos 1656 4.4 22:35:03 10° NNW 22:39:42 50° NNE 22:39:42 50° NNE
ARIANE 5 R/B 4.5 22:45:42 28° NNW 22:45:42 28° NNW 22:47:49 10° NNW
Cosmos 1697 Rocket 3.9 22:47:38 10° NNW 22:52:28 36° NE 22:52:28 36° NE
USA 267 3.9 22:55:43 44° W 22:55:43 44° W 23:00:30 10° WNW
ATLAS CENTAUR R/B 4.3 23:09:53 11° NNE 23:09:53 11° NNE 23:10:18 10° NNE
Cosmos 2344 3.8 23:18:32 10° NW 23:26:36 81° SW 23:27:14 77° S
Cosmos 1980 Rocket 3.3 23:47:53 10° NNW 23:52:13 40° NNE 23:52:13 40° NNE
